Location: Griffin Ranch
(33.6186°N, 110.6622°W)
Time: 22:24:03
(UTC-07:00)

Cosmos 1812 - Visible Passes

Search period start: 05 May 2015 00:00
Search period end: 15 May 2015 00:00
Orbit: 529 x 532 km, 82.5° (Epoch: 05 May)

Date Brightness Start Highest point End Pass type
(mag) Time Alt. Az. Time Alt. Az. Time Alt. Az.
05 May 5.5 22:25:46 16° N 22:25:46 16° N 22:26:40 10° N visible
06 May 5.2 22:14:54 20° N 22:14:54 20° N 22:16:12 10° N visible
07 May 4.9 22:03:59 24° N 22:03:59 24° N 22:05:43 10° N visible
08 May 4.4 21:53:02 31° N 21:53:02 31° N 21:55:13 10° N visible
09 May 3.9 21:42:02 41° N 21:42:02 41° N 21:44:43 10° N visible
10 May 3.2 21:30:58 58° NNW 21:30:58 58° NNW 21:34:12 10° N visible
11 May 2.7 21:19:50 83° NW 21:19:50 83° NW 21:23:41 10° N visible
12 May 2.6 21:08:38 64° S 21:09:13 88° E 21:13:09 10° N visible
13 May 2.6 20:57:20 40° S 20:58:40 81° E 21:02:36 10° N visible
14 May 2.6 20:45:55 24° S 20:48:08 74° E 20:52:03 10° N visible
